[[{"header":{"parameterUnit":"m.s-1","parameterCategory":2,"la1":30.2991,"la2":30.254,"lo1":-89.0895,"lo2":-89.0444,"dy":0.0017,"dx":0.0017,"nx":28,"ny":28,"refTime":"2023-09-24T03:00:00:Z","depth":"0","parameterNumber":2,"parameterNumberName":"U-component_of_CURRENTS"},"data":[0,0,0,0,0,0,0,0,0,0,0,0,0,0,0,0,0,0,0,0,0,0,0,0,0,0,0,0,0,0,0,0,0,0,0,0,0,0,0,0,0,0,0,0,0,0,0,0,0,0,0,0,0,0,0,0,0,0,0.1803,0.1804,0,0.1856,0.1856,0.1857,0.1883,0.1883,0.1883,0.1883,0.1943,0.1945,0.1946,0,0,0,0,0,0,0,0,0,0,0,0,0,0.1718,0.1719,0.1803,0.1804,0.1804,0.1856,0.1856,0.1857,0.1883,0.1883,0.1883,0.1883,0.1943,0.1945,0.1947,0,0,0,0,0,0,0,0,0,0,0,0,0,0.1761,0.172,0.1803,0.1824,0.1826,0.1856,0.1856,0.1857,0.1883,0.1883,0.1883,0.1883,0.1942,0.1945,0.1947,0.1961,0,0,0.1954,0.1955,0,0,0,0,0,0,0,0,0.1758,0.1764,0.182,0.1822,0.1825,0.1863,0.1849,0.1892,0.1883,0.1861,0.1883,0.1883,0.1917,0.1922,0.1931,0.1964,0.1966,0.1954,0.1956,0.1957,0.1958,0,0,0,0,0,0,0,0.1755,0.1762,0.1824,0.1821,0.1824,0.1828,0.1834,0.1857,0.1888,0.1863,0.1865,0.1871,0.1919,0.1929,0.1933,0.1967,0.1954,0.1956,0.1958,0.1959,0.2118,0.2121,0,0,0,0,0,0,0.175,0.1759,0.1822,0.1825,0.1791,0.183,0.1836,0.1851,0.1888,0.1894,0.1871,0.1872,0.1925,0.193,0.1935,0.2031,0.1957,0.1959,0.196,0.2115,0.2119,0.2122,0,0,0,0,0,0,0.1748,0.1755,0.182,0.1793,0.1801,0.1831,0.1847,0.1852,0.1867,0.1894,0.19,0.1882,0.1925,0.1932,0.1976,0.203,0.196,0.1962,0.2112,0.2116,0.212,0.2173,0,0,0,0,0,0,0.1746,0.1755,0.1765,0.1793,0.1803,0.1853,0.1847,0.1853,0.1871,0.1873,0.1905,0.1911,0.1925,0.1972,0.1978,0.2032,0.1964,0.2108,0.2114,0.2119,0.2168,0.2179,0.2188,0,0,0,0,0,0.1742,0.1761,0.1766,0.1773,0.1816,0.1854,0.186,0.188,0.1871,0.1891,0.1914,0.191,0.2011,0.1975,0.1982,0.2038,0.2106,0.2112,0.2118,0.2164,0.2177,0.2188,0,0,0,0,0,0,0.1726,0.1766,0.1772,0.18,0.183,0.1859,0.1877,0.1881,0.1913,0.1914,0.1929,0.1938,0.2007,0.2012,0.1973,0.2104,0.2064,0.2072,0.2097,0.2109,0.2119,0.2152,0.1966,0,0,0,0,0,0.1727,0.1754,0.1788,0.1811,0.1827,0.1849,0.1865,0.1879,0.1907,0.192,0.1945,0.1983,0.2038,0.2061,0.2105,0.2157,0.214,0.2205,0.2215,0.2223,0.2258,0.2288,0.2303,0.2142,0.2142,0.2142,0,0,0.1723,0.1751,0.1763,0.1809,0.1832,0.1873,0.186,0.1891,0.1934,0.1922,0.1987,0.2016,0.2061,0.2137,0.2169,0.2145,0.2248,0.2231,0.2238,0.2269,0.2296,0.2312,0.2325,0.2147,0.2146,0.2145,0,0,0.1737,0.1758,0.1788,0.1824,0.1865,0.1887,0.1896,0.1934,0.1963,0.2016,0.204,0.2107,0.2156,0.2226,0.226,0.2352,0.2302,0.2356,0.243,0.2458,0.2471,0.2482,0.2414,0.2419,0.2358,0.2358,0.2358,0,0.173,0.1782,0.1802,0.1848,0.1889,0.1896,0.1948,0.1979,0.2028,0.2067,0.2047,0.2178,0.2216,0.2336,0.2384,0.2379,0.2341,0.2372,0.2468,0.248,0.2491,0.2419,0.2424,0.2361,0.2361,0.236,0.236,0,0.1772,0.1821,0.1845,0.1913,0.1955,0.2,0.205,0.2096,0.2117,0.2147,0.2252,0.2305,0.2381,0.2416,0.2433,0.2549,0.2473,0.2473,0.2429,0.251,0.2428,0.2432,0.2366,0.2365,0.2364,0.2363,0,0,0.1745,0.1855,0.1865,0.192,0.2001,0.204,0.2125,0.2209,0.2258,0.2311,0.2379,0.2515,0.2517,0.2562,0.2589,0.2641,0.2674,0.2595,0.2595,0.251,0.2651,0.2408,0.2387,0.2672,0.2675,0.2678,0.2536,0,0.1778,0.1875,0.193,0.2033,0.2091,0.2155,0.2234,0.2307,0.235,0.2407,0.2481,0.2539,0.2573,0.2595,0.2665,0.2685,0.2699,0.2708,0.2603,0.2599,0.2361,0.2392,0.2235,0.2082,0.254,0.2541,0.2541,0,0.1809,0.1877,0.1977,0.2115,0.2147,0.2206,0.2332,0.2401,0.2486,0.251,0.258,0.2591,0.2698,0.2684,0.2761,0.275,0.2718,0.2717,0.271,0.2482,0.2367,0.2093,0.2072,0.2002,0.2547,0.2547,0.2546,0,0.1786,0.1919,0.2003,0.2048,0.2187,0.2255,0.2328,0.243,0.2481,0.2548,0.255,0.2658,0.2659,0.2714,0.2695,0.2728,0.2708,0.2738,0.2478,0.2456,0.2307,0.2266,0.2202,0.2774,0.2774,0.2775,0.2775,0,0.1812,0.1884,0.1995,0.2042,0.2143,0.2246,0.2338,0.2418,0.2494,0.2516,0.2581,0.2579,0.2669,0.2648,0.2674,0.2546,0.2672,0.2491,0.2423,0.2309,0.2272,0.2191,0.2184,0.2769,0.2771,0.2772,0.2773,0,0.1782,0.1858,0.1952,0.2089,0.2132,0.2196,0.232,0.2371,0.2442,0.246,0.2465,0.2503,0.2455,0.2477,0.2496,0.2442,0.2288,0.231,0.2107,0.2018,0.1713,0.1714,0.154,0.1514,0.2024,0.2017,0.2012,0,0.1779,0.1821,0.1945,0.1982,0.2044,0.2141,0.2199,0.2321,0.2358,0.2392,0.2383,0.2327,0.2248,0.2134,0.2052,0.1958,0.1997,0.1721,0.1793,0.1661,0.1617,0.1628,0.1626,0.1595,0.1587,0.158,0.1574,0,0.1766,0.1799,0.1866,0.1923,0.1986,0.2052,0.2141,0.2159,0.2255,0.2246,0.2181,0.2113,0.194,0.1744,0.1571,0.1526,0.1594,0.1566,0.1539,0.1357,0.1265,0.1215,0.1665,0.1512,0.1519,0.1523,0.1526,0.1529,0.1732,0.1754,0.1814,0.186,0.1917,0.1936,0.1948,0.1997,0.2,0.1944,0.1968,0.1777,0.1544,0.1279,0.1207,0.0931,0.11,0.0893,0.092,0.0956,0.0893,0.1131,0.0835,0.0838,0.0839,0.0841,0.0843,0,0.1672,0.1701,0.1746,0.1789,0.179,0.1849,0.1884,0.1851,0.1777,0.1696,0.1611,0.1262,0.0996,0.0807,0.0471,0.0336,0.0424,0.031,0.0381,0.0435,0.0724,0.0669,0.0191,0.0191,0.0191,0.0191,0.0191,0.0192,0.1644,0.1651,0.1665,0.1641,0.1659,0.1626,0.1608,0.1549,0.148,0.1212,0.0971,0.0874,0.0588,0.0207,-0.0061,-0.0065,-0.0004,-0.0118,0.0013,0.0285,0.0347,0.0406,0.0356,-0.018,-0.018,-0.028,-0.0282,-0.0283]},{"header":{"parameterUnit":"m.s-1","parameterCategory":2,"la1":30.2991,"la2":30.254,"lo1":-89.0895,"lo2":-89.0444,"dy":0.0017,"dx":0.0017,"nx":28,"ny":28,"refTime":"2023-09-24T03:00:00:Z","depth":"0","parameterNumber":3,"parameterNumberName":"V-component_of_CURRENTS"},"data":[0,0,0,0,0,0,0,0,0,0,0,0,0,0,0,0,0,0,0,0,0,0,0,0,0,0,0,0,0,0,0,0,0,0,0,0,0,0,0,0,0,0,0,0,0,0,0,0,0,0,0,0,0,0,0,0,0,0,0.0266,0.0267,0,0.0287,0.0287,0.0287,0.029,0.029,0.029,0.029,0.0269,0.0269,0.0268,0,0,0,0,0,0,0,0,0,0,0,0,0,0.0232,0.0233,0.0266,0.0267,0.0267,0.0287,0.0287,0.0287,0.029,0.029,0.029,0.029,0.0269,0.0269,0.0268,0,0,0,0,0,0,0,0,0,0,0,0,0,0.0249,0.0233,0.0266,0.0271,0.0272,0.0287,0.0287,0.0287,0.029,0.029,0.029,0.029,0.027,0.0269,0.0268,0.0269,0,0,0.0266,0.0266,0,0,0,0,0,0,0,0,0.0248,0.025,0.027,0.0271,0.0272,0.0286,0.0267,0.0279,0.029,0.0283,0.029,0.029,0.0271,0.0271,0.0275,0.0268,0.0267,0.0266,0.0266,0.0266,0.0265,0,0,0,0,0,0,0,0.0247,0.0249,0.0274,0.0271,0.0272,0.0273,0.0275,0.027,0.0277,0.0284,0.0284,0.0287,0.0272,0.0276,0.0274,0.0266,0.0266,0.0266,0.0265,0.0265,0.0251,0.0251,0,0,0,0,0,0,0.0245,0.0248,0.0273,0.0275,0.026,0.0274,0.0276,0.0281,0.0278,0.0278,0.0287,0.0287,0.0277,0.0275,0.0274,0.0271,0.0266,0.0265,0.0265,0.0251,0.0251,0.0251,0,0,0,0,0,0,0.0245,0.0247,0.0273,0.0262,0.0265,0.0275,0.0281,0.0282,0.0287,0.0281,0.028,0.0291,0.0277,0.0274,0.0265,0.027,0.0265,0.0264,0.0251,0.0251,0.0251,0.0267,0,0,0,0,0,0,0.0244,0.0247,0.0251,0.0262,0.0266,0.0284,0.0281,0.0283,0.0289,0.0289,0.0284,0.0282,0.0276,0.0266,0.0264,0.0269,0.0264,0.0251,0.0251,0.0251,0.0266,0.0267,0.0268,0,0,0,0,0,0.0242,0.0251,0.0251,0.0254,0.0271,0.0284,0.0286,0.0292,0.029,0.0295,0.0285,0.0282,0.0265,0.0265,0.0263,0.0268,0.0251,0.0251,0.0251,0.0266,0.0267,0.0268,0,0,0,0,0,0,0.0237,0.0252,0.0253,0.0265,0.0274,0.0285,0.0293,0.0293,0.0292,0.029,0.028,0.0278,0.0272,0.0266,0.0267,0.0264,0.0258,0.0258,0.027,0.0271,0.0272,0.0316,0.0263,0,0,0,0,0,0.0238,0.0249,0.026,0.027,0.0276,0.0283,0.0289,0.0293,0.0293,0.0293,0.0286,0.0278,0.0272,0.0268,0.0262,0.0259,0.0286,0.0261,0.0262,0.0262,0.0296,0.0359,0.037,0.0251,0.0251,0.0251,0,0,0.0237,0.0248,0.0254,0.027,0.0278,0.0285,0.0287,0.0298,0.03,0.029,0.0287,0.0281,0.0271,0.0268,0.0265,0.0263,0.0299,0.0262,0.0263,0.0298,0.036,0.0372,0.0383,0.0251,0.0251,0.0251,0,0,0.0247,0.0254,0.0267,0.0275,0.029,0.029,0.0293,0.0303,0.0304,0.03,0.0294,0.0303,0.0278,0.0289,0.0286,0.0292,0.0302,0.0272,0.0314,0.0373,0.0385,0.0395,0.04,0.0411,0.0273,0.0273,0.0273,0,0.0245,0.0264,0.0272,0.0286,0.0293,0.0292,0.0303,0.0302,0.0304,0.0323,0.0299,0.032,0.0299,0.0329,0.0319,0.0299,0.0315,0.0308,0.0378,0.0389,0.04,0.0403,0.0415,0.0274,0.0274,0.0273,0.0273,0,0.0264,0.0278,0.0287,0.03,0.0306,0.0317,0.0317,0.0323,0.0318,0.0333,0.0364,0.0354,0.0381,0.0358,0.0333,0.0393,0.0371,0.0373,0.0382,0.0414,0.0413,0.0425,0.0275,0.0274,0.0274,0.0274,0,0,0.0268,0.0295,0.0298,0.0314,0.0317,0.0329,0.0329,0.0354,0.039,0.0387,0.0449,0.0426,0.0454,0.0455,0.0439,0.0475,0.0526,0.0451,0.0454,0.0467,0.0624,0.0588,0.0597,0.0542,0.0546,0.0548,0.0577,0,0.0281,0.0315,0.0318,0.034,0.0359,0.0358,0.037,0.0392,0.0411,0.0467,0.0488,0.0531,0.0479,0.0504,0.0534,0.0543,0.0567,0.0516,0.0583,0.0584,0.056,0.0615,0.0635,0.0663,0.0589,0.0591,0.0593,0,0.03,0.0324,0.0352,0.0388,0.0397,0.0407,0.0454,0.0467,0.0534,0.0556,0.0617,0.0643,0.0695,0.0651,0.0705,0.0674,0.0656,0.0651,0.0652,0.0637,0.0575,0.0628,0.0689,0.0736,0.0612,0.061,0.0609,0,0.0315,0.0348,0.0374,0.0383,0.0416,0.0438,0.0457,0.0511,0.0553,0.0638,0.0696,0.0759,0.0804,0.0822,0.0788,0.0762,0.0842,0.0809,0.0757,0.0751,0.0796,0.0789,0.0932,0.0865,0.0865,0.0865,0.0865,0,0.0334,0.0359,0.0391,0.0411,0.0465,0.0474,0.0549,0.0574,0.0652,0.0733,0.0761,0.0839,0.0855,0.0891,0.0849,0.0842,0.0893,0.0794,0.0782,0.0792,0.0785,0.0849,0.0858,0.0866,0.0866,0.0866,0.0865,0,0.0354,0.0368,0.0412,0.0456,0.0477,0.0521,0.0598,0.0662,0.0713,0.0823,0.0858,0.0925,0.0964,0.0951,0.0973,0.0921,0.0941,0.0888,0.0866,0.0852,0.0845,0.0852,0.0975,0.101,0.0862,0.0862,0.0862,0,0.0369,0.0392,0.0451,0.049,0.0515,0.0582,0.0639,0.0692,0.076,0.0873,0.0936,0.1004,0.1054,0.1056,0.0997,0.0946,0.095,0.0908,0.0875,0.0883,0.0883,0.088,0.0901,0.0914,0.0914,0.0914,0.0915,0,0.0408,0.0426,0.0466,0.0539,0.0601,0.0669,0.0749,0.0809,0.0882,0.0961,0.1055,0.1104,0.1111,0.1093,0.1012,0.0967,0.0966,0.0907,0.0962,0.0991,0.0958,0.0972,0.081,0.0916,0.0916,0.0916,0.0916,0.0916,0.0443,0.048,0.053,0.0596,0.0663,0.0739,0.0801,0.0883,0.0976,0.1088,0.1128,0.1181,0.1167,0.1075,0.1038,0.0988,0.0975,0.0967,0.0985,0.0987,0.1017,0.0826,0.0887,0.0887,0.0887,0.0887,0.0886,0,0.0484,0.0522,0.0586,0.0661,0.0722,0.0752,0.086,0.0916,0.1013,0.1109,0.1182,0.1185,0.119,0.1143,0.1084,0.1078,0.1082,0.1081,0.1121,0.1146,0.1031,0.1029,0.107,0.107,0.107,0.107,0.107,0.107,0.051,0.0569,0.0592,0.0686,0.0738,0.0816,0.0871,0.0959,0.1027,0.1106,0.112,0.1144,0.1132,0.1184,0.1209,0.1202,0.1262,0.123,0.126,0.1208,0.12,0.1192,0.1197,0.1272,0.1272,0.139,0.1391,0.1392]}],[{"header":{"parameterUnit":"m.s-1","parameterCategory":2,"la1":30.2991,"la2":30.254,"lo1":-89.0895,"lo2":-89.0444,"dy":0.0017,"dx":0.0017,"nx":28,"ny":28,"refTime":"2023-09-24T03:00:00:Z","depth":"2","parameterNumber":2,"parameterNumberName":"U-component_of_CURRENTS"},"data":[0,0,0,0,0,0,0,0,0,0,0,0,0,0,0,0,0,0,0,0,0,0,0,0,0,0,0,0,0,0,0,0,0,0,0,0,0,0,0,0,0,0,0,0,0,0,0,0,0,0,0,0,0,0,0,0,0,0,0.1415,0.1415,0,0.1395,0.1395,0.1394,0.1387,0.1387,0.1388,0.1388,0.1427,0.1427,0.1428,0,0,0,0,0,0,0,0,0,0,0,0,0,0.141,0.141,0.1415,0.1415,0.1416,0.1395,0.1395,0.1394,0.1387,0.1387,0.1388,0.1388,0.1427,0.1427,0.1428,0,0,0,0,0,0,0,0,0,0,0,0,0,0.1399,0.141,0.1415,0.1412,0.1412,0.1396,0.1395,0.1394,0.1387,0.1387,0.1388,0.1388,0.1426,0.1427,0.1428,0.1422,0,0,0.1431,0.1432,0,0,0,0,0,0,0,0,0.14,0.1399,0.1413,0.1412,0.1412,0.1398,0.1407,0.1407,0.1386,0.1392,0.1388,0.1389,0.1425,0.1426,0.1414,0.1423,0.1425,0.1431,0.1432,0.1432,0.1432,0,0,0,0,0,0,0,0.1401,0.14,0.1403,0.1413,0.1413,0.1399,0.1398,0.1406,0.1403,0.1392,0.1392,0.1396,0.1424,0.1413,0.1415,0.1426,0.1431,0.1432,0.1433,0.1433,0.146,0.146,0,0,0,0,0,0,0.1412,0.1401,0.1404,0.1403,0.1412,0.1399,0.1398,0.1398,0.1402,0.1404,0.1395,0.1396,0.1411,0.1414,0.1417,0.1474,0.1432,0.1433,0.1434,0.146,0.146,0.146,0,0,0,0,0,0,0.1412,0.1413,0.1405,0.1405,0.1403,0.1399,0.1399,0.1398,0.14,0.1405,0.1407,0.1402,0.1412,0.1415,0.1452,0.1474,0.1434,0.1434,0.146,0.146,0.146,0.1549,0,0,0,0,0,0,0.1412,0.1412,0.1413,0.1405,0.1404,0.1412,0.1399,0.1397,0.1403,0.1403,0.1411,0.1414,0.1412,0.1451,0.1453,0.1474,0.1435,0.1459,0.146,0.146,0.1546,0.1552,0.1557,0,0,0,0,0,0.1412,0.1416,0.1413,0.1414,0.1406,0.1413,0.1411,0.1407,0.1403,0.141,0.1425,0.1414,0.1453,0.1453,0.1455,0.1477,0.1459,0.146,0.146,0.1543,0.1551,0.1557,0,0,0,0,0,0,0.1417,0.1416,0.1413,0.1417,0.1423,0.1414,0.1421,0.1414,0.1426,0.1433,0.1432,0.1437,0.1466,0.1457,0.1456,0.1479,0.1447,0.1448,0.1509,0.1517,0.1522,0.1534,0.1436,0,0,0,0,0,0.1418,0.1418,0.1421,0.1425,0.1433,0.1427,0.1428,0.1428,0.1438,0.1443,0.1451,0.1456,0.1463,0.1482,0.1479,0.151,0.1512,0.1517,0.1523,0.1528,0.1535,0.1621,0.1638,0.1461,0.1461,0.1461,0,0,0.1418,0.142,0.1419,0.1426,0.1429,0.1427,0.1429,0.1443,0.1434,0.1447,0.1456,0.1477,0.1471,0.1501,0.1512,0.1505,0.1562,0.1528,0.1534,0.1538,0.1624,0.1642,0.1658,0.1461,0.1461,0.1461,0,0,0.1423,0.1428,0.1431,0.1434,0.1448,0.1442,0.1451,0.1458,0.146,0.1471,0.1481,0.1534,0.152,0.1554,0.1557,0.1593,0.1583,0.1575,0.1634,0.1719,0.1735,0.175,0.1713,0.1724,0.1591,0.1591,0.1591,0,0.1423,0.1433,0.1435,0.1439,0.1453,0.1449,0.1464,0.1446,0.1463,0.15,0.1478,0.1547,0.1542,0.1621,0.1622,0.1611,0.162,0.1617,0.1732,0.1747,0.1761,0.172,0.1731,0.1595,0.1595,0.1594,0.1594,0,0.1427,0.1438,0.1447,0.1445,0.1453,0.1474,0.1463,0.1469,0.1472,0.1492,0.1574,0.1601,0.1666,0.1656,0.164,0.1745,0.17,0.1727,0.1727,0.1786,0.1735,0.1746,0.1601,0.16,0.1599,0.1598,0,0,0.1427,0.1448,0.1451,0.1456,0.1473,0.1471,0.1472,0.1508,0.1527,0.1567,0.1651,0.1677,0.1755,0.1764,0.1795,0.1852,0.192,0.1832,0.1835,0.1814,0.2033,0.1807,0.1795,0.1995,0.1998,0.2001,0.1936,0,0.1442,0.1463,0.147,0.1475,0.1494,0.1498,0.1493,0.1518,0.1551,0.1619,0.1712,0.1777,0.1776,0.1831,0.191,0.192,0.1961,0.1929,0.1961,0.1959,0.1772,0.1806,0.1666,0.1583,0.1946,0.1948,0.1949,0,0.144,0.1468,0.1495,0.1512,0.152,0.1521,0.1558,0.1547,0.1639,0.1667,0.1812,0.1886,0.2002,0.1984,0.2081,0.2069,0.2057,0.2048,0.2048,0.182,0.1755,0.1593,0.1587,0.1966,0.1964,0.1963,0.1962,0,0.1446,0.1472,0.1502,0.1506,0.1519,0.1547,0.1558,0.1611,0.1647,0.1739,0.1797,0.1965,0.2028,0.211,0.2076,0.2112,0.2124,0.2182,0.196,0.1939,0.1812,0.1774,0.2254,0.2254,0.2254,0.2255,0.2255,0,0.1455,0.1471,0.151,0.1525,0.1549,0.1562,0.1615,0.1609,0.1722,0.1757,0.186,0.1915,0.2069,0.2103,0.2105,0.2011,0.2156,0.1956,0.1931,0.1823,0.1788,0.2129,0.2116,0.2252,0.2252,0.2253,0.2253,0,0.1437,0.1465,0.1489,0.1539,0.1552,0.1566,0.1654,0.1681,0.1736,0.1796,0.1838,0.1928,0.1899,0.1965,0.2013,0.198,0.1945,0.1868,0.1648,0.1597,0.1701,0.1693,0.1679,0.1671,0.1664,0.1659,0.1654,0,0.1431,0.1441,0.149,0.1505,0.1538,0.1584,0.1602,0.1678,0.1696,0.1752,0.1756,0.18,0.1747,0.1688,0.164,0.1576,0.171,0.1383,0.1441,0.1676,0.1654,0.1656,0.1657,0.1288,0.1281,0.1275,0.127,0,0.1416,0.1428,0.145,0.1483,0.1513,0.1529,0.1569,0.1616,0.1633,0.1652,0.1606,0.16,0.1495,0.1353,0.1231,0.1195,0.1395,0.1251,0.1622,0.1425,0.1295,0.1277,0.1294,0.1216,0.1222,0.1226,0.1228,0.1231,0.1398,0.1401,0.1417,0.1429,0.1456,0.145,0.1442,0.145,0.1447,0.1397,0.1421,0.1282,0.1252,0.0992,0.0896,0.0827,0.0977,0.0964,0.099,0.1021,0.0958,0.0821,0.0634,0.0636,0.0638,0.0639,0.0641,0,0.1343,0.1349,0.1363,0.1362,0.1342,0.1384,0.1364,0.1313,0.1228,0.1169,0.1094,0.0906,0.0736,0.0706,0.0514,0.0455,0.0544,0.0427,0.0579,0.0628,0.0674,0.0603,0.018,0.0179,0.0178,0.0177,0,0,0.132,0.1294,0.1287,0.1227,0.1235,0.1175,0.1148,0.1057,0.0982,0.0848,0.0736,0.0715,0.0685,0.0458,0.0387,0.0259,0.046,0.0222,0.0588,0.0819,0.0865,0.0964,0.0903,0,0,0,0,0]},{"header":{"parameterUnit":"m.s-1","parameterCategory":2,"la1":30.2991,"la2":30.254,"lo1":-89.0895,"lo2":-89.0444,"dy":0.0017,"dx":0.0017,"nx":28,"ny":28,"refTime":"2023-09-24T03:00:00:Z","depth":"2","parameterNumber":3,"parameterNumberName":"V-component_of_CURRENTS"},"data":[0,0,0,0,0,0,0,0,0,0,0,0,0,0,0,0,0,0,0,0,0,0,0,0,0,0,0,0,0,0,0,0,0,0,0,0,0,0,0,0,0,0,0,0,0,0,0,0,0,0,0,0,0,0,0,0,0,0,0.0105,0.0105,0,0.0119,0.0119,0.0119,0.0121,0.0121,0.0121,0.0121,0.0102,0.0102,0.0102,0,0,0,0,0,0,0,0,0,0,0,0,0,0.0082,0.0083,0.0105,0.0105,0.0105,0.0119,0.0119,0.0119,0.0121,0.0121,0.0121,0.0121,0.0102,0.0102,0.0102,0,0,0,0,0,0,0,0,0,0,0,0,0,0.0094,0.0083,0.0105,0.0108,0.0108,0.0119,0.0119,0.0119,0.0122,0.0121,0.0121,0.0121,0.0103,0.0102,0.0101,0.0101,0,0,0.01,0.0099,0,0,0,0,0,0,0,0,0.0093,0.0094,0.0107,0.0108,0.0108,0.0118,0.0104,0.0112,0.0122,0.0116,0.0121,0.0121,0.0105,0.0104,0.0107,0.01,0.0099,0.01,0.0099,0.0099,0.0099,0,0,0,0,0,0,0,0.0092,0.0094,0.011,0.0107,0.0108,0.011,0.0111,0.0106,0.0111,0.0117,0.0117,0.0119,0.0105,0.0108,0.0107,0.0099,0.01,0.0099,0.0099,0.0098,0.0086,0.0086,0,0,0,0,0,0,0.0091,0.0093,0.011,0.0111,0.01,0.011,0.0112,0.0115,0.0111,0.0111,0.0119,0.0119,0.0109,0.0108,0.0106,0.0099,0.0099,0.0098,0.0098,0.0086,0.0086,0.0086,0,0,0,0,0,0,0.009,0.0092,0.0109,0.0102,0.0104,0.0111,0.0115,0.0116,0.012,0.0114,0.0112,0.0122,0.0109,0.0107,0.0096,0.0098,0.0098,0.0098,0.0086,0.0086,0.0086,0.0088,0,0,0,0,0,0,0.009,0.0092,0.0094,0.0102,0.0105,0.0119,0.0115,0.0116,0.0121,0.0121,0.0116,0.0114,0.0109,0.0097,0.0095,0.0097,0.0097,0.0086,0.0086,0.0086,0.0088,0.0088,0.0089,0,0,0,0,0,0.0089,0.0094,0.0094,0.0096,0.0107,0.012,0.0121,0.0125,0.0121,0.0127,0.0115,0.0114,0.0096,0.0096,0.0094,0.0096,0.0086,0.0086,0.0086,0.0088,0.0088,0.0089,0,0,0,0,0,0,0.0086,0.0095,0.0095,0.0103,0.0112,0.012,0.0126,0.0126,0.0123,0.012,0.011,0.0108,0.0102,0.0098,0.0098,0.0094,0.0093,0.0093,0.0095,0.0095,0.0095,0.014,0.0097,0,0,0,0,0,0.0086,0.0092,0.0101,0.0107,0.0113,0.0119,0.0124,0.0127,0.0125,0.0125,0.0117,0.0109,0.0102,0.0096,0.0093,0.0086,0.0114,0.0088,0.0088,0.0089,0.0124,0.0181,0.019,0.0087,0.0087,0.0087,0,0,0.0085,0.0092,0.0095,0.0107,0.0115,0.0126,0.0122,0.0133,0.0139,0.0122,0.0122,0.011,0.0101,0.0095,0.0092,0.009,0.0121,0.0089,0.0089,0.0125,0.0182,0.0192,0.0202,0.0087,0.0087,0.0087,0,0,0.0092,0.0096,0.0104,0.0114,0.0127,0.0132,0.0135,0.0142,0.0144,0.014,0.0129,0.0131,0.0108,0.0115,0.0111,0.0114,0.0123,0.0093,0.0128,0.0182,0.0192,0.0201,0.0204,0.0213,0.0091,0.0091,0.0091,0,0.0091,0.0102,0.0109,0.0122,0.0129,0.0135,0.0146,0.0151,0.0152,0.0165,0.0142,0.0152,0.013,0.0152,0.0138,0.0119,0.0131,0.0124,0.0185,0.0195,0.0204,0.0206,0.0216,0.0091,0.0091,0.0091,0.0091,0,0.0107,0.0114,0.0122,0.0138,0.0148,0.0159,0.0168,0.0178,0.0175,0.0188,0.021,0.0192,0.021,0.0184,0.0153,0.0201,0.0178,0.018,0.0189,0.0215,0.0213,0.0225,0.0091,0.0091,0.0091,0.0091,0,0,0.011,0.0127,0.013,0.0143,0.0156,0.0172,0.0184,0.0212,0.0252,0.0245,0.0297,0.0267,0.0281,0.028,0.0252,0.0279,0.0315,0.0248,0.025,0.0259,0.0397,0.0366,0.0375,0.0324,0.0327,0.0329,0.0352,0,0.0119,0.0142,0.0146,0.0171,0.0185,0.0197,0.0224,0.0253,0.0273,0.0326,0.0333,0.0368,0.031,0.0321,0.0341,0.0333,0.0352,0.0307,0.0365,0.0367,0.0345,0.0391,0.0391,0.0411,0.0363,0.0365,0.0366,0,0.0135,0.0148,0.017,0.0205,0.0216,0.0233,0.0294,0.0317,0.0388,0.0412,0.0458,0.0473,0.0504,0.0459,0.049,0.0459,0.0435,0.0424,0.0425,0.042,0.036,0.0386,0.0434,0.0385,0.0383,0.0382,0.0381,0,0.0147,0.0167,0.0187,0.0196,0.0239,0.0257,0.028,0.0346,0.0393,0.0478,0.0535,0.058,0.061,0.0616,0.0563,0.0539,0.0596,0.0566,0.0519,0.0514,0.0543,0.0536,0.0618,0.0618,0.0618,0.0618,0.0618,0,0.0161,0.0179,0.0196,0.0214,0.0265,0.0278,0.0352,0.0392,0.047,0.0556,0.0585,0.0656,0.0655,0.0673,0.0621,0.0601,0.0646,0.0554,0.0542,0.0534,0.0527,0.0537,0.0527,0.0618,0.0618,0.0618,0.0618,0,0.0182,0.0188,0.0223,0.0259,0.0276,0.0314,0.0382,0.0447,0.0511,0.0622,0.0656,0.0725,0.0751,0.0726,0.0729,0.0677,0.066,0.0635,0.0594,0.0579,0.0522,0.0512,0.0615,0.0615,0.0615,0.0615,0.0614,0,0.0197,0.0215,0.0261,0.0293,0.0309,0.036,0.0416,0.0469,0.0541,0.0662,0.0727,0.0781,0.0823,0.0803,0.0745,0.0687,0.0658,0.0633,0.0606,0.0557,0.0534,0.0524,0.0515,0.0618,0.0618,0.0617,0.0617,0,0.0231,0.0248,0.0281,0.0336,0.0384,0.0447,0.0512,0.0574,0.066,0.0743,0.0838,0.0871,0.0867,0.0823,0.0739,0.069,0.0647,0.0628,0.0639,0.0611,0.056,0.0536,0.0527,0.0616,0.0616,0.0616,0.0616,0.0616,0.0266,0.0293,0.0331,0.0386,0.0441,0.0514,0.0569,0.0648,0.0743,0.0851,0.0879,0.0903,0.0876,0.0761,0.0701,0.063,0.0645,0.0602,0.0603,0.0604,0.0593,0.0544,0.0592,0.0592,0.0592,0.0592,0.0592,0,0.0299,0.0325,0.0376,0.0437,0.0491,0.0518,0.0629,0.0682,0.078,0.085,0.09,0.083,0.0794,0.0734,0.0644,0.0599,0.059,0.0559,0.0566,0.0569,0.0571,0.0558,0.0548,0.0548,0.0547,0.0547,0,0,0.0319,0.036,0.0376,0.0456,0.0505,0.0583,0.0643,0.0721,0.0777,0.0821,0.0818,0.0838,0.0793,0.0705,0.0659,0.0603,0.0585,0.0579,0.0624,0.0643,0.0644,0.0611,0.0596,0,0,0,0,0]}],[{"header":{"parameterUnit":"m.s-1","parameterCategory":2,"la1":30.2991,"la2":30.254,"lo1":-89.0895,"lo2":-89.0444,"dy":0.0017,"dx":0.0017,"nx":28,"ny":28,"refTime":"2023-09-24T03:00:00:Z","depth":"4","parameterNumber":2,"parameterNumberName":"U-component_of_CURRENTS"},"data":[0,0,0,0,0,0,0,0,0,0,0,0,0,0,0,0,0,0,0,0,0,0,0,0,0,0,0,0,0,0,0,0,0,0,0,0,0,0,0,0,0,0,0,0,0,0,0,0,0,0,0,0,0,0,0,0,0,0,0.0609,0.0609,0,0.0585,0.0585,0.0585,0.0589,0.0589,0.059,0.0591,0.0572,0.0571,0.057,0,0,0,0,0,0,0,0,0,0,0,0,0,0.0696,0.0694,0.0609,0.0609,0.0609,0.0586,0.0585,0.0584,0.0589,0.0589,0.059,0.0591,0.0572,0.0571,0.057,0,0,0,0,0,0,0,0,0,0,0,0,0,0.0662,0.0694,0.0609,0.061,0.061,0.0586,0.0585,0.0584,0.0588,0.0589,0.059,0.0591,0.0573,0.0571,0.057,0.0542,0,0,0.0565,0.0564,0,0,0,0,0,0,0,0,0.0664,0.0659,0.061,0.061,0.061,0.0593,0.0609,0.0571,0.0588,0.0594,0.0591,0.0592,0.058,0.0578,0.0568,0.0541,0.054,0.0565,0.0564,0.0563,0.0563,0,0,0,0,0,0,0,0.0666,0.066,0.0598,0.061,0.0609,0.0625,0.062,0.0602,0.0581,0.0594,0.0595,0.0595,0.058,0.057,0.0568,0.054,0.0565,0.0563,0.0562,0.0562,0.0529,0.0529,0,0,0,0,0,0,0.067,0.0662,0.0598,0.0597,0.0642,0.0622,0.0617,0.0596,0.0581,0.058,0.0594,0.0595,0.0572,0.057,0.0568,0.0574,0.0563,0.0562,0.0561,0.0529,0.0529,0.0529,0,0,0,0,0,0,0.0671,0.0663,0.0599,0.0632,0.0625,0.062,0.0596,0.0595,0.06,0.0582,0.0581,0.0603,0.0573,0.057,0.0568,0.0572,0.0561,0.0559,0.0528,0.0529,0.0529,0.0561,0,0,0,0,0,0,0.0673,0.0663,0.0658,0.0631,0.0624,0.0589,0.0595,0.0594,0.0599,0.06,0.0588,0.0587,0.0573,0.0571,0.0566,0.057,0.0558,0.0528,0.0529,0.0529,0.056,0.0562,0.0564,0,0,0,0,0,0.0676,0.0656,0.0657,0.065,0.0612,0.0589,0.0586,0.0585,0.0599,0.0595,0.0597,0.0588,0.0568,0.0569,0.0565,0.0567,0.0528,0.0528,0.0529,0.0559,0.0562,0.0564,0,0,0,0,0,0,0.0696,0.0654,0.0654,0.0624,0.0614,0.0591,0.0589,0.0593,0.059,0.06,0.0588,0.0586,0.0584,0.057,0.0572,0.0558,0.0547,0.0546,0.0571,0.0574,0.0576,0.0563,0.0557,0,0,0,0,0,0.0697,0.0666,0.0643,0.0623,0.0617,0.0609,0.0605,0.0606,0.0597,0.0598,0.0596,0.059,0.0576,0.0574,0.0559,0.0551,0.0577,0.055,0.0552,0.0554,0.054,0.0617,0.0626,0.0529,0.0529,0.0529,0,0,0.0703,0.0675,0.0662,0.0626,0.0618,0.0594,0.0608,0.0603,0.0591,0.0595,0.0591,0.0597,0.0576,0.0569,0.0567,0.0562,0.0595,0.0554,0.0556,0.0541,0.0619,0.0628,0.0637,0.0529,0.0529,0.0529,0,0,0.069,0.0674,0.0643,0.0627,0.0613,0.0602,0.0604,0.0595,0.0601,0.0595,0.06,0.0616,0.0589,0.0587,0.0576,0.058,0.0605,0.0576,0.0577,0.0653,0.0662,0.067,0.0721,0.0733,0.0578,0.0578,0.0578,0,0.0709,0.0647,0.0637,0.0604,0.0588,0.0603,0.0575,0.0576,0.0574,0.0595,0.0597,0.0613,0.0593,0.06,0.0587,0.0585,0.0628,0.0572,0.0659,0.0667,0.0676,0.0725,0.0739,0.0579,0.0579,0.0579,0.0579,0,0.0661,0.0621,0.0604,0.0556,0.0547,0.0525,0.0523,0.054,0.0559,0.0574,0.0611,0.0611,0.0635,0.062,0.0589,0.0633,0.0646,0.0658,0.0658,0.0688,0.0737,0.0751,0.0582,0.0581,0.0581,0.058,0,0,0.0677,0.0585,0.0582,0.0548,0.0516,0.0503,0.0502,0.0509,0.0547,0.0567,0.0617,0.0592,0.0651,0.064,0.0646,0.0673,0.0751,0.0678,0.0682,0.0737,0.0916,0.075,0.0749,0.0798,0.08,0.0802,0.0931,0,0.0643,0.0562,0.0528,0.047,0.043,0.0443,0.0451,0.0479,0.052,0.0582,0.0621,0.0664,0.0645,0.0679,0.0714,0.0737,0.0787,0.0714,0.0869,0.0872,0.073,0.0759,0.0809,0.0941,0.0944,0.0946,0.0948,0,0.0601,0.0548,0.0484,0.0428,0.042,0.0406,0.0448,0.0458,0.0552,0.0606,0.0688,0.0731,0.0777,0.0767,0.0865,0.0829,0.0872,0.0887,0.0894,0.073,0.073,0.0902,0.0973,0.0971,0.0969,0.0967,0.0966,0,0.0606,0.0513,0.0461,0.0438,0.0399,0.0403,0.0403,0.0481,0.0519,0.0642,0.0706,0.08,0.0858,0.0927,0.0931,0.0933,0.1024,0.1055,0.0957,0.0947,0.1048,0.1038,0.1148,0.1148,0.1148,0.1148,0.1147,0,0.0561,0.0522,0.0463,0.0437,0.043,0.0408,0.0443,0.0496,0.0575,0.0639,0.0737,0.0797,0.09,0.095,0.0974,0.0975,0.1088,0.0947,0.0966,0.1057,0.1046,0.1058,0.1046,0.1152,0.1151,0.115,0.115,0,0.056,0.0521,0.0469,0.0427,0.043,0.0434,0.0441,0.0474,0.0569,0.0658,0.0697,0.0819,0.0886,0.0942,0.1037,0.1014,0.1035,0.1014,0.1078,0.1101,0.0912,0.0901,0.0964,0.0959,0.0955,0.0952,0.0949,0,0.0539,0.0511,0.0481,0.0479,0.0456,0.0452,0.0468,0.0502,0.0521,0.0648,0.0678,0.0775,0.0845,0.0865,0.0921,0.0972,0.0953,0.0974,0.0952,0.088,0.0894,0.0888,0.0882,0.0942,0.0941,0.094,0.0939,0,0.0509,0.052,0.0494,0.0484,0.0481,0.0461,0.0451,0.046,0.0514,0.0599,0.0653,0.0692,0.0756,0.0803,0.0819,0.0853,0.096,0.0932,0.0943,0.0922,0.0855,0.0871,0.0869,0.0925,0.0927,0.0928,0.0929,0,0.0518,0.0498,0.0481,0.0468,0.0471,0.0442,0.0443,0.0423,0.0445,0.0552,0.056,0.0667,0.0745,0.074,0.0752,0.0754,0.0771,0.0763,0.0782,0.0799,0.0672,0.0557,0.0547,0,0,0,0,0,0.0501,0.0465,0.0449,0.0416,0.0415,0.0414,0.0417,0.0416,0.0455,0.0475,0.0509,0.0556,0.0597,0.0634,0.061,0.0679,0.0769,0.0644,0.0768,0.0845,0.0862,0.0719,0,0,0,0,0,0,0.0492,0.0472,0.0432,0.0375,0.0351,0.033,0.0339,0.0376,0.036,0.0427,0.0448,0.0503,0.0546,0.0615,0.06,0.0608,0.0666,0.0688,0.0685,0.0836,0.0851,0.0864,0.0724,0,0,0,0,0]},{"header":{"parameterUnit":"m.s-1","parameterCategory":2,"la1":30.2991,"la2":30.254,"lo1":-89.0895,"lo2":-89.0444,"dy":0.0017,"dx":0.0017,"nx":28,"ny":28,"refTime":"2023-09-24T03:00:00:Z","depth":"4","parameterNumber":3,"parameterNumberName":"V-component_of_CURRENTS"},"data":[0,0,0,0,0,0,0,0,0,0,0,0,0,0,0,0,0,0,0,0,0,0,0,0,0,0,0,0,0,0,0,0,0,0,0,0,0,0,0,0,0,0,0,0,0,0,0,0,0,0,0,0,0,0,0,0,0,0,0.0129,0.0129,0,0.0167,0.0168,0.0168,0.0179,0.0179,0.0179,0.0178,0.0217,0.0218,0.022,0,0,0,0,0,0,0,0,0,0,0,0,0,0.0082,0.0082,0.0129,0.0129,0.013,0.0167,0.0168,0.0168,0.0179,0.0179,0.0179,0.0178,0.0217,0.0218,0.022,0,0,0,0,0,0,0,0,0,0,0,0,0,0.011,0.0083,0.0129,0.0139,0.0141,0.0167,0.0168,0.0169,0.0179,0.0179,0.0179,0.0178,0.0216,0.0218,0.022,0.0239,0,0,0.0226,0.0227,0,0,0,0,0,0,0,0,0.0108,0.0111,0.0137,0.0139,0.014,0.0168,0.0165,0.0192,0.0179,0.0165,0.0178,0.0178,0.0201,0.0204,0.0213,0.0241,0.0243,0.0226,0.0227,0.0228,0.0229,0,0,0,0,0,0,0,0.0106,0.011,0.0144,0.0138,0.0139,0.0148,0.0151,0.0171,0.0185,0.0166,0.0167,0.0171,0.0201,0.0211,0.0214,0.0243,0.0226,0.0228,0.0229,0.023,0.0305,0.0306,0,0,0,0,0,0,0.01,0.0108,0.0143,0.0146,0.0122,0.0149,0.0153,0.016,0.0185,0.0188,0.0171,0.0171,0.0208,0.0211,0.0215,0.0263,0.0228,0.023,0.0231,0.0304,0.0305,0.0306,0,0,0,0,0,0,0.0099,0.0103,0.0142,0.0127,0.0133,0.015,0.0158,0.0161,0.0171,0.0188,0.0192,0.0179,0.0207,0.0212,0.0239,0.0263,0.0231,0.0232,0.0303,0.0304,0.0306,0.0344,0,0,0,0,0,0,0.0098,0.0102,0.0107,0.0127,0.0133,0.0165,0.0158,0.0162,0.0174,0.0174,0.0196,0.0199,0.0208,0.0236,0.0241,0.0265,0.0234,0.0302,0.0304,0.0305,0.0341,0.0346,0.035,0,0,0,0,0,0.0096,0.0106,0.0108,0.0112,0.0139,0.0165,0.017,0.0181,0.0175,0.0187,0.02,0.0199,0.025,0.0239,0.0244,0.027,0.0301,0.0303,0.0305,0.0339,0.0345,0.035,0,0,0,0,0,0,0.0089,0.0109,0.0111,0.0126,0.0146,0.0167,0.0179,0.0183,0.0203,0.0202,0.0211,0.0216,0.0249,0.0252,0.0239,0.0295,0.0275,0.0278,0.0299,0.0305,0.0309,0.0305,0.0235,0,0,0,0,0,0.0089,0.0102,0.0122,0.0135,0.0146,0.0161,0.0173,0.0181,0.0199,0.0207,0.0222,0.0238,0.0262,0.0276,0.0294,0.0326,0.031,0.0345,0.035,0.0353,0.0354,0.0333,0.0335,0.0312,0.0312,0.0312,0,0,0.0087,0.0102,0.0107,0.0134,0.0149,0.0178,0.0168,0.0189,0.0214,0.0209,0.0245,0.0254,0.0272,0.0309,0.0324,0.0316,0.0355,0.0356,0.0359,0.0357,0.0335,0.0337,0.0338,0.0314,0.0313,0.0313,0,0,0.0099,0.0107,0.0125,0.0146,0.0172,0.0188,0.0194,0.0219,0.0232,0.0264,0.0268,0.0287,0.0324,0.0343,0.0356,0.0395,0.0377,0.0404,0.0429,0.0409,0.041,0.0411,0.0407,0.0408,0.0409,0.0409,0.0409,0,0.0097,0.0128,0.0135,0.0163,0.0187,0.0194,0.0227,0.0245,0.0275,0.029,0.028,0.0327,0.034,0.0385,0.0401,0.0405,0.0392,0.0408,0.0413,0.0414,0.0414,0.041,0.041,0.0411,0.0411,0.0411,0.041,0,0.0125,0.0156,0.017,0.0211,0.0235,0.0265,0.029,0.0311,0.0321,0.0338,0.0373,0.0382,0.0409,0.042,0.0426,0.0447,0.0437,0.0418,0.0397,0.0418,0.0413,0.0412,0.0414,0.0413,0.0413,0.0412,0,0,0.0115,0.0179,0.0186,0.022,0.0265,0.0291,0.0329,0.0373,0.0394,0.0413,0.0438,0.0476,0.0468,0.0481,0.0485,0.0473,0.0471,0.0451,0.0448,0.0443,0.0436,0.043,0.0428,0.0446,0.0446,0.0445,0.0437,0,0.0142,0.0202,0.0231,0.0298,0.0335,0.036,0.0394,0.0428,0.0447,0.047,0.0476,0.05,0.0496,0.0502,0.0494,0.0473,0.0467,0.0476,0.0419,0.0418,0.0406,0.0426,0.0445,0.0436,0.0435,0.0435,0.0435,0,0.0166,0.0209,0.0271,0.0348,0.0365,0.0402,0.0455,0.0491,0.0519,0.0526,0.0543,0.0539,0.055,0.0521,0.0501,0.0505,0.0478,0.0453,0.0452,0.043,0.041,0.0407,0.0433,0.0433,0.0433,0.0433,0.0433,0,0.0159,0.0243,0.0295,0.032,0.0396,0.0428,0.047,0.0507,0.0535,0.0559,0.0564,0.0571,0.0569,0.0533,0.0501,0.0495,0.0456,0.0439,0.0413,0.0413,0.0402,0.0401,0.0412,0.0412,0.0412,0.0412,0.0412,0,0.0183,0.023,0.0296,0.0328,0.0386,0.0436,0.0493,0.0522,0.0557,0.0588,0.0593,0.0594,0.0566,0.0544,0.0506,0.0464,0.0462,0.0422,0.0408,0.0422,0.0423,0.0402,0.0401,0.0412,0.0412,0.0412,0.0412,0,0.0174,0.0217,0.028,0.0359,0.0385,0.0424,0.0509,0.0541,0.0574,0.0606,0.0611,0.0614,0.059,0.0562,0.0506,0.0475,0.0427,0.041,0.0445,0.0432,0.0399,0.04,0.0383,0.0383,0.0383,0.0382,0.0382,0,0.018,0.0208,0.0286,0.0316,0.0358,0.0426,0.0466,0.0533,0.0569,0.0612,0.0619,0.0614,0.0609,0.0534,0.05,0.0441,0.0425,0.0405,0.0391,0.0407,0.0395,0.0396,0.0398,0.0382,0.0382,0.0382,0.0381,0,0.019,0.0205,0.0253,0.0303,0.0354,0.0419,0.049,0.0514,0.0585,0.061,0.0615,0.0592,0.0571,0.0525,0.049,0.0439,0.0419,0.0402,0.0402,0.0388,0.0405,0.0393,0.0395,0.0381,0.0381,0.0381,0.0381,0,0.0188,0.0203,0.0248,0.0297,0.0352,0.0405,0.045,0.0504,0.0546,0.0599,0.0593,0.058,0.0581,0.0524,0.0482,0.0447,0.043,0.0402,0.0401,0.0402,0.0408,0.0432,0.0407,0,0,0,0,0,0.019,0.0205,0.0244,0.03,0.0351,0.0389,0.0462,0.0505,0.0567,0.0564,0.0586,0.0564,0.052,0.05,0.0462,0.0472,0.0423,0.0425,0.039,0.0375,0.0376,0.0379,0,0,0,0,0,0,0.0191,0.0221,0.0236,0.0293,0.033,0.0394,0.0441,0.0485,0.0495,0.0539,0.0514,0.0532,0.0487,0.0532,0.045,0.0444,0.0411,0.0416,0.0415,0.0375,0.0376,0.0376,0.038,0,0,0,0,0]}]]